Regional Weather Roundup
Issued by NWS

Home | Current Version | Previous Version | Graphics & Text | Print | Product List | Glossary Off
Versions: 1 2 3 4 5 6 7 8 9 10 11 12 13 14 15 16 17 18 19 20 21 22 23 24 25 26 27 28 29 30 31 32 33 34 35 36 37 38 39 40 41 42 43 44 45 46 47 48 49 50

000
ASUS43 KMKX 222211
RWRWI

WISCONSIN REGIONAL WEATHER ROUNDUP
NATIONAL WEATHER SERVICE MILWAUKEE/SULLIVAN WI
400 PM CST WED NOV 22 2017

NOTE: "FAIR" INDICATES FEW OR NO CLOUDS BELOW 12,000 FEET WITH NO
SIGNIFICANT WEATHER AND/OR OBSTRUCTIONS TO VISIBILITY.

WIZ001-002-006>008-014>016-023>028-222300-
NORTHWEST WISCONSIN

CITY           SKY/WX    TMP DP  RH WIND       PRES   REMARKS
SUPERIOR ARPT  CLOUDY    24  13  61 SW12      30.11F WCI  13
ASHLAND        MOCLDY    25  12  58 S13       30.10F WCI  14
HAYWARD        CLOUDY    23  13  65 S14       30.11F WCI  11
SIREN          FLURRIES  23  17  79 S10       30.11F WCI  12
CUMBERLAND     CLOUDY    23  18  80 S9        30.11F WCI  13
RICE LAKE      CLOUDY    23  19  84 S8        30.15F WCI  13
CHETEK         LGT SNOW  22  18  83 S5        30.14F WCI  16
LADYSMITH      LGT SNOW  24  14  65 SW10      30.15F WCI  13
EAU CLAIRE     CLOUDY    25  13  60 S5        30.16F WCI  19
MENOMONIE      LGT SNOW  26  17  67 S5        30.16F WCI  20
NEW RICHMOND   CLOUDY    24  19  78 S8        30.12F WCI  16
OSCEOLA        CLOUDY    24  19  82 SE7       30.14F WCI  16
$$

WIZ003>005-009-010-017-018-222300-
NORTH CENTRAL WISCONSIN

CITY           SKY/WX    TMP DP  RH WIND       PRES   REMARKS
MANITOWISH WTR CLOUDY    23  12  61 SW10      30.07F WCI  12
ARBOR VITAE    CLOUDY    26  14  60 SW7       30.09S WCI  18
WOODRUFF       CLOUDY    26  14  60 SW7       30.09S WCI  18
RHINELANDER    CLOUDY    25  12  58 SW9       30.10F WCI  15
EAGLE RIVER    CLOUDY    24  10  55 SW5       30.08F WCI  18
LAND O LAKES   CLOUDY    25  12  59 S5        30.09S WCI  19
PHILLIPS       CLOUDY    22  12  64 SW8       30.11S WCI  13
TOMAHAWK       CLOUDY    24  12  60 SW3       30.12F
MEDFORD        CLOUDY    23  12  62 SW8       30.13S WCI  14
MERRILL        CLOUDY    25  12  58 SW8       30.14F WCI  17
$$

WIZ029-030-035-036-043>047-222300-
CENTRAL WISCONSIN

CITY           SKY/WX    TMP DP  RH WIND       PRES   REMARKS
WAUSAU         CLOUDY    25  13  60 SW10      30.14F WCI  15
MOSINEE        CLOUDY    25  14  63 S8        30.16F WCI  16
MARSHFIELD     CLOUDY    25  10  53 SW9       30.14F WCI  15
STEVENS POINT  CLOUDY    25  11  55 SW7       30.18S WCI  17
WAUPACA        CLOUDY    31  13  46 S3        30.20F
WAUTOMA        CLOUDY    29  14  53 SW7       30.20F WCI  22
WISC RAPIDS    CLOUDY    28  13  53 SW5       30.19F WCI  23
CAMP DOUGLAS   CLOUDY    29  13  50 S3        30.18F
$$

WIZ011>013-019>022-031-037>040-048>050-222300-
NORTHEAST WISCONSIN

CITY           SKY/WX    TMP DP  RH WIND       PRES   REMARKS
ANTIGO         CLOUDY    25  12  59 SW7       30.13F WCI  17
SHAWANO        CLOUDY    30  13  49 SW6       30.18F WCI  24
OCONTO         CLOUDY    28  13  52 SW8       30.20S WCI  20
STURGEON BAY   PTCLDY    27  15  61 SW5       30.20S WCI  22
GREEN BAY      CLOUDY    29  16  58 SW9       30.21S WCI  20
MANITOWOC      CLOUDY    29  16  58 W7        30.22S WCI  22
APPLETON       CLOUDY    28  10  47 SW9       30.18F WCI  20
CLINTONVILLE   PTCLDY    28  12  50 SW6       30.19F WCI  22
OSHKOSH        PTCLDY    29  16  58 SW6       30.20S WCI  23
$$

WIZ032>034-041-042-053>061-222300-
SOUTHWEST WISCONSIN

CITY           SKY/WX    TMP DP  RH WIND       PRES   REMARKS
LA CROSSE      CLOUDY    31  14  49 S6        30.19F WCI  25
SPARTA         CLOUDY    29  14  53 SW3       30.20S
VIROQUA        CLOUDY    28  17  63 SW8       30.17F WCI  20
BOSCOBEL       CLOUDY    32  14  47 S5        30.21F WCI  27
PRAIRIE DU CHI CLOUDY    32  13  45 S3        30.21F
PLATTEVILLE    PTCLDY    32  17  54 SW8       30.22S WCI  24
$$

WIZ056-057-062-063-064-067-068-222300-
SOUTH CENTRAL WISCONSIN

CITY           SKY/WX    TMP DP  RH WIND       PRES   REMARKS
REEDSBURG      CLOUDY    29  15  54 SW6       30.20S WCI  23
BARABOO/DELLS  CLOUDY    29  14  52 SW7       30.20S WCI  22
LONE ROCK      CLOUDY    31  15  52 SW7       30.22F WCI  24
MINERAL POINT  CLOUDY    32  18  55 SW6       30.21S WCI  26
MADISON        CLOUDY    31  14  49 SW6       30.21S WCI  25
MIDDLETON      CLOUDY    32  16  51 SW6       30.22S WCI  26
WATERTOWN      PTCLDY    30  16  56 SW8       30.22S WCI  22
MONROE         CLOUDY    32  16  51 SW8       30.22R WCI  25
JANESVILLE     MOCLDY    32  16  51 SW9       30.23S WCI  24
$$

WIZ051-052-058>065-066-070>072-222300-
SOUTHEAST WISCONSIN

CITY           SKY/WX    TMP DP  RH WIND       PRES   REMARKS
MILWAUKEE      MOCLDY    33  14  45 SW8       30.23F WCI  26
WAUKESHA       CLEAR     28  12  50 SW8       30.23S WCI  20
MILWAUKEE/TIMM CLEAR     30  10  43 SW9       30.23F WCI  22
RACINE         MOCLDY    32  14  47 SW6       30.26S WCI  26
BURLINGTON     PTCLDY    32  21  64 SW5       30.23S WCI  27
KENOSHA        CLOUDY    31  15  52 W6        30.24S WCI  25
FOND DU LAC    CLOUDY    30  14  51 SW6       30.21S WCI  24
SHEBOYGAN      CLOUDY    30  15  53 SW8       30.22S WCI  22
WEST BEND      CLOUDY    30  14  51 SW5       30.22S WCI  25
JUNEAU         CLOUDY    29  15  56 S6        30.22S WCI  23
$$

LSZ147-162-222300-
LAKE SUPERIOR

STATION/POSITION TIME  TEMP    WIND        PRES    WAVE
                       AIR SEA DIR/SP/G            HT/PER
                 (UTC) (F)     (DEG/KT/KT) (MB)    (FT/S)
DEVILS ISLAND    2200   26     210/ 14/ 18 1019.6F
SAXON HARBOR     2140   27     210/  7/ 12 1019.3F
$$

LMZ867-665-643>646-222300-
LAKE MICHIGAN

STATION/POSITION TIME  TEMP    WIND        PRES    WAVE
                       AIR SEA DIR/SP/G            HT/PER
                 (UTC) (F)     (DEG/KT/KT) (MB)    (FT/S)
N MID LAKE BUOY  2150   31 47  210/ 14/ 19 1023.3F   1/ 3
NORTHPORT PIER   2154   28     190/  2/ 10 1022.4S
KEWAUNEE LAKESHO 2142   29     250/  7/  9 1022.3S
SHEBOYGAN LAKESH 2200   31     230/  8/  9 1024.2R
PORT WASHINGTON  2130   32     230/  6/  9 1024.4S
MILWAUKEE LAKESH 2150   33     210/  9/ 10   N/A
S MID LAKE BUOY  2050   31 47  280/  8/ 10 1026.0R   2/ 6
KENOSHA   LAKESH 2200   32     240/  7/ 11 1024.4
$$

TC  - TEMPERATURE IN CELSIUS
VSB - VISIBILITY IN STATUTE MILES
WCI - WIND CHILL INDEX
HX  - HEAT INDEX





USA.gov is the U.S. government's official web portal to all federal, state and local government web resources and services.